owner,sensor,date,latitude,longitude,vertical_datum,sea_water_practical_salinity,qcFlag 
LUMCON,ioos:station:LUMCON:102:1,2010-12-01T01:00:00Z,29.1870,-90.6093,-9999.0,19.93,1111122 
LUMCON,ioos:station:LUMCON:102:1,2010-12-01T02:00:00Z,29.1870,-90.6093,-9999.0,19.89,1111122 
LUMCON,ioos:station:LUMCON:102:1,2010-12-01T03:00:00Z,29.1870,-90.6093,-9999.0,19.25,1111122 
LUMCON,ioos:station:LUMCON:102:1,2010-12-01T04:00:00Z,29.1870,-90.6093,-9999.0,18.8,1111122 
LUMCON,ioos:station:LUMCON:102:1,2010-12-01T05:00:00Z,29.1870,-90.6093,-9999.0,18.52,1111122 
LUMCON,ioos:station:LUMCON:102:1,2010-12-01T06:00:00Z,29.1870,-90.6093,-9999.0,18.24,1111122 
LUMCON,ioos:station:LUMCON:102:1,2010-12-01T07:00:00Z,29.1870,-90.6093,-9999.0,16.82,1111122 
LUMCON,ioos:station:LUMCON:102:1,2010-12-01T08:00:00Z,29.1870,-90.6093,-9999.0,15.82,1111122 
LUMCON,ioos:station:LUMCON:102:1,2010-12-01T09:00:00Z,29.1870,-90.6093,-9999.0,15.36,1111122 
LUMCON,ioos:station:LUMCON:102:1,2010-12-01T10:00:00Z,29.1870,-90.6093,-9999.0,15.79,1111122 
LUMCON,ioos:station:LUMCON:102:1,2010-12-01T11:00:00Z,29.1870,-90.6093,-9999.0,15.7,1111122 
LUMCON,ioos:station:LUMCON:102:1,2010-12-01T12:00:00Z,29.1870,-90.6093,-9999.0,16.11,1111122 
LUMCON,ioos:station:LUMCON:102:1,2010-12-01T13:00:00Z,29.1870,-90.6093,-9999.0,16.32,1111122 
LUMCON,ioos:station:LUMCON:102:1,2010-12-01T14:00:00Z,29.1870,-90.6093,-9999.0,15.49,1111122 
LUMCON,ioos:station:LUMCON:102:1,2010-12-01T15:00:00Z,29.1870,-90.6093,-9999.0,14.62,1111122 
LUMCON,ioos:station:LUMCON:102:1,2010-12-01T16:00:00Z,29.1870,-90.6093,-9999.0,15.17,1111122 
LUMCON,ioos:station:LUMCON:102:1,2010-12-01T17:00:00Z,29.1870,-90.6093,-9999.0,18.0,1111122 
LUMCON,ioos:station:LUMCON:102:1,2010-12-01T18:00:00Z,29.1870,-90.6093,-9999.0,19.41,1111122 
LUMCON,ioos:station:LUMCON:102:1,2010-12-01T19:00:00Z,29.1870,-90.6093,-9999.0,20.53,1111122 
LUMCON,ioos:station:LUMCON:102:1,2010-12-01T20:00:00Z,29.1870,-90.6093,-9999.0,21.17,1111122 
LUMCON,ioos:station:LUMCON:102:1,2010-12-01T21:00:00Z,29.1870,-90.6093,-9999.0,21.54,1111122 
LUMCON,ioos:station:LUMCON:102:1,2010-12-01T22:00:00Z,29.1870,-90.6093,-9999.0,22.84,1111122 
LUMCON,ioos:station:LUMCON:102:1,2010-12-01T23:00:00Z,29.1870,-90.6093,-9999.0,23.5,1111122 
LUMCON,ioos:station:LUMCON:102:1,2010-12-01T24:00:00Z,29.1870,-90.6093,-9999.0,23.12,1111122 
LUMCON,ioos:station:LUMCON:102:1,2010-12-02T01:00:00Z,29.1870,-90.6093,-9999.0,23.17,1111122 
LUMCON,ioos:station:LUMCON:102:1,2010-12-02T02:00:00Z,29.1870,-90.6093,-9999.0,22.82,1111122 
LUMCON,ioos:station:LUMCON:102:1,2010-12-02T03:00:00Z,29.1870,-90.6093,-9999.0,21.98,1111122 
LUMCON,ioos:station:LUMCON:102:1,2010-12-02T04:00:00Z,29.1870,-90.6093,-9999.0,22.43,1111122 
LUMCON,ioos:station:LUMCON:102:1,2010-12-02T05:00:00Z,29.1870,-90.6093,-9999.0,22.8,1111122 
LUMCON,ioos:station:LUMCON:102:1,2010-12-02T06:00:00Z,29.1870,-90.6093,-9999.0,22.81,1111122 
LUMCON,ioos:station:LUMCON:102:1,2010-12-02T07:00:00Z,29.1870,-90.6093,-9999.0,22.66,1111122 
LUMCON,ioos:station:LUMCON:102:1,2010-12-02T08:00:00Z,29.1870,-90.6093,-9999.0,21.65,1111122 
LUMCON,ioos:station:LUMCON:102:1,2010-12-02T09:00:00Z,29.1870,-90.6093,-9999.0,19.77,1111122 
LUMCON,ioos:station:LUMCON:102:1,2010-12-02T10:00:00Z,29.1870,-90.6093,-9999.0,18.49,1111122 
LUMCON,ioos:station:LUMCON:102:1,2010-12-02T11:00:00Z,29.1870,-90.6093,-9999.0,17.37,1111122 
LUMCON,ioos:station:LUMCON:102:1,2010-12-02T12:00:00Z,29.1870,-90.6093,-9999.0,17.27,1111122 
LUMCON,ioos:station:LUMCON:102:1,2010-12-02T13:00:00Z,29.1870,-90.6093,-9999.0,16.57,1111122 
LUMCON,ioos:station:LUMCON:102:1,2010-12-02T14:00:00Z,29.1870,-90.6093,-9999.0,17.27,1111122 
LUMCON,ioos:station:LUMCON:102:1,2010-12-02T15:00:00Z,29.1870,-90.6093,-9999.0,17.19,1111122 
LUMCON,ioos:station:LUMCON:102:1,2010-12-02T16:00:00Z,29.1870,-90.6093,-9999.0,18.07,1111122 
LUMCON,ioos:station:LUMCON:102:1,2010-12-02T17:00:00Z,29.1870,-90.6093,-9999.0,19.35,1111122 
LUMCON,ioos:station:LUMCON:102:1,2010-12-02T18:00:00Z,29.1870,-90.6093,-9999.0,20.18,1111122 
LUMCON,ioos:station:LUMCON:102:1,2010-12-02T19:00:00Z,29.1870,-90.6093,-9999.0,20.0,1111122 
LUMCON,ioos:station:LUMCON:102:1,2010-12-02T20:00:00Z,29.1870,-90.6093,-9999.0,20.73,1111122 
LUMCON,ioos:station:LUMCON:102:1,2010-12-02T21:00:00Z,29.1870,-90.6093,-9999.0,21.24,1111122 
LUMCON,ioos:station:LUMCON:102:1,2010-12-02T22:00:00Z,29.1870,-90.6093,-9999.0,22.03,1111122 
LUMCON,ioos:station:LUMCON:102:1,2010-12-02T23:00:00Z,29.1870,-90.6093,-9999.0,22.98,1111122 
LUMCON,ioos:station:LUMCON:102:1,2010-12-02T24:00:00Z,29.1870,-90.6093,-9999.0,23.11,1111122 
LUMCON,ioos:station:LUMCON:102:1,2010-12-03T01:00:00Z,29.1870,-90.6093,-9999.0,23.06,1111122 
LUMCON,ioos:station:LUMCON:102:1,2010-12-03T02:00:00Z,29.1870,-90.6093,-9999.0,23.25,1111122 
LUMCON,ioos:station:LUMCON:102:1,2010-12-03T03:00:00Z,29.1870,-90.6093,-9999.0,23.31,1111122 
LUMCON,ioos:station:LUMCON:102:1,2010-12-03T04:00:00Z,29.1870,-90.6093,-9999.0,23.25,1111122 
LUMCON,ioos:station:LUMCON:102:1,2010-12-03T05:00:00Z,29.1870,-90.6093,-9999.0,23.39,1111122 
LUMCON,ioos:station:LUMCON:102:1,2010-12-03T06:00:00Z,29.1870,-90.6093,-9999.0,22.77,1111122 
LUMCON,ioos:station:LUMCON:102:1,2010-12-03T07:00:00Z,29.1870,-90.6093,-9999.0,22.16,1111122 
LUMCON,ioos:station:LUMCON:102:1,2010-12-03T08:00:00Z,29.1870,-90.6093,-9999.0,21.69,1111122 
LUMCON,ioos:station:LUMCON:102:1,2010-12-03T09:00:00Z,29.1870,-90.6093,-9999.0,21.32,1111122 
LUMCON,ioos:station:LUMCON:102:1,2010-12-03T10:00:00Z,29.1870,-90.6093,-9999.0,20.33,1111122 
LUMCON,ioos:station:LUMCON:102:1,2010-12-03T11:00:00Z,29.1870,-90.6093,-9999.0,19.79,1111122 
LUMCON,ioos:station:LUMCON:102:1,2010-12-03T12:00:00Z,29.1870,-90.6093,-9999.0,18.99,1111122 
LUMCON,ioos:station:LUMCON:102:1,2010-12-03T13:00:00Z,29.1870,-90.6093,-9999.0,18.7,1111122 
LUMCON,ioos:station:LUMCON:102:1,2010-12-03T14:00:00Z,29.1870,-90.6093,-9999.0,18.2,1111122 
LUMCON,ioos:station:LUMCON:102:1,2010-12-03T15:00:00Z,29.1870,-90.6093,-9999.0,17.97,1111122 
LUMCON,ioos:station:LUMCON:102:1,2010-12-03T16:00:00Z,29.1870,-90.6093,-9999.0,18.01,1111122 
LUMCON,ioos:station:LUMCON:102:1,2010-12-03T17:00:00Z,29.1870,-90.6093,-9999.0,18.45,1111122 
LUMCON,ioos:station:LUMCON:102:1,2010-12-03T18:00:00Z,29.1870,-90.6093,-9999.0,19.13,1111122 
LUMCON,ioos:station:LUMCON:102:1,2010-12-03T19:00:00Z,29.1870,-90.6093,-9999.0,19.87,1111122 
LUMCON,ioos:station:LUMCON:102:1,2010-12-03T20:00:00Z,29.1870,-90.6093,-9999.0,20.48,1111122 
LUMCON,ioos:station:LUMCON:102:1,2010-12-03T21:00:00Z,29.1870,-90.6093,-9999.0,21.16,1111122 
LUMCON,ioos:station:LUMCON:102:1,2010-12-03T22:00:00Z,29.1870,-90.6093,-9999.0,21.55,1111122 
LUMCON,ioos:station:LUMCON:102:1,2010-12-03T23:00:00Z,29.1870,-90.6093,-9999.0,21.96,1111122 
LUMCON,ioos:station:LUMCON:102:1,2010-12-03T24:00:00Z,29.1870,-90.6093,-9999.0,22.26,1111122 
LUMCON,ioos:station:LUMCON:102:1,2010-12-04T01:00:00Z,29.1870,-90.6093,-9999.0,22.89,1111122 
LUMCON,ioos:station:LUMCON:102:1,2010-12-04T02:00:00Z,29.1870,-90.6093,-9999.0,23.21,1111122 
LUMCON,ioos:station:LUMCON:102:1,2010-12-04T03:00:00Z,29.1870,-90.6093,-9999.0,23.13,1111122 
LUMCON,ioos:station:LUMCON:102:1,2010-12-04T04:00:00Z,29.1870,-90.6093,-9999.0,23.28,1111122 
LUMCON,ioos:station:LUMCON:102:1,2010-12-04T05:00:00Z,29.1870,-90.6093,-9999.0,23.14,1111122 
LUMCON,ioos:station:LUMCON:102:1,2010-12-04T06:00:00Z,29.1870,-90.6093,-9999.0,23.37,1111122 
LUMCON,ioos:station:LUMCON:102:1,2010-12-04T07:00:00Z,29.1870,-90.6093,-9999.0,22.72,1111122 
LUMCON,ioos:station:LUMCON:102:1,2010-12-04T08:00:00Z,29.1870,-90.6093,-9999.0,21.49,1111122 
LUMCON,ioos:station:LUMCON:102:1,2010-12-04T09:00:00Z,29.1870,-90.6093,-9999.0,20.18,1111122 
LUMCON,ioos:station:LUMCON:102:1,2010-12-04T10:00:00Z,29.1870,-90.6093,-9999.0,19.41,1111122 
LUMCON,ioos:station:LUMCON:102:1,2010-12-04T11:00:00Z,29.1870,-90.6093,-9999.0,18.92,1111122 
LUMCON,ioos:station:LUMCON:102:1,2010-12-04T12:00:00Z,29.1870,-90.6093,-9999.0,18.63,1111122 
LUMCON,ioos:station:LUMCON:102:1,2010-12-04T13:00:00Z,29.1870,-90.6093,-9999.0,17.16,1111122 
LUMCON,ioos:station:LUMCON:102:1,2010-12-04T14:00:00Z,29.1870,-90.6093,-9999.0,16.76,1111122 
LUMCON,ioos:station:LUMCON:102:1,2010-12-04T15:00:00Z,29.1870,-90.6093,-9999.0,17.12,1111122 
LUMCON,ioos:station:LUMCON:102:1,2010-12-04T16:00:00Z,29.1870,-90.6093,-9999.0,16.84,1111122 
LUMCON,ioos:station:LUMCON:102:1,2010-12-04T17:00:00Z,29.1870,-90.6093,-9999.0,16.57,1111122 
LUMCON,ioos:station:LUMCON:102:1,2010-12-04T18:00:00Z,29.1870,-90.6093,-9999.0,17.81,1111122 
LUMCON,ioos:station:LUMCON:102:1,2010-12-04T19:00:00Z,29.1870,-90.6093,-9999.0,19.4,1111122 
LUMCON,ioos:station:LUMCON:102:1,2010-12-04T20:00:00Z,29.1870,-90.6093,-9999.0,20.48,1111122 
LUMCON,ioos:station:LUMCON:102:1,2010-12-04T21:00:00Z,29.1870,-90.6093,-9999.0,21.19,1111122 
LUMCON,ioos:station:LUMCON:102:1,2010-12-04T22:00:00Z,29.1870,-90.6093,-9999.0,21.93,1111122 
LUMCON,ioos:station:LUMCON:102:1,2010-12-04T23:00:00Z,29.1870,-90.6093,-9999.0,22.23,1111122 
LUMCON,ioos:station:LUMCON:102:1,2010-12-04T24:00:00Z,29.1870,-90.6093,-9999.0,22.66,1111122 
LUMCON,ioos:station:LUMCON:102:1,2010-12-05T01:00:00Z,29.1870,-90.6093,-9999.0,23.19,1111122 
LUMCON,ioos:station:LUMCON:102:1,2010-12-05T02:00:00Z,29.1870,-90.6093,-9999.0,22.98,1111122 
LUMCON,ioos:station:LUMCON:102:1,2010-12-05T03:00:00Z,29.1870,-90.6093,-9999.0,23.61,1111122 
LUMCON,ioos:station:LUMCON:102:1,2010-12-05T04:00:00Z,29.1870,-90.6093,-9999.0,23.64,1111122 
LUMCON,ioos:station:LUMCON:102:1,2010-12-05T05:00:00Z,29.1870,-90.6093,-9999.0,23.9,1111122 
LUMCON,ioos:station:LUMCON:102:1,2010-12-05T06:00:00Z,29.1870,-90.6093,-9999.0,23.69,1111122 
LUMCON,ioos:station:LUMCON:102:1,2010-12-05T07:00:00Z,29.1870,-90.6093,-9999.0,23.7,1111122 
LUMCON,ioos:station:LUMCON:102:1,2010-12-05T08:00:00Z,29.1870,-90.6093,-9999.0,23.11,1111122 
LUMCON,ioos:station:LUMCON:102:1,2010-12-05T09:00:00Z,29.1870,-90.6093,-9999.0,22.14,1111122 
LUMCON,ioos:station:LUMCON:102:1,2010-12-05T10:00:00Z,29.1870,-90.6093,-9999.0,20.15,1111122 
LUMCON,ioos:station:LUMCON:102:1,2010-12-05T11:00:00Z,29.1870,-90.6093,-9999.0,19.53,1111122 
LUMCON,ioos:station:LUMCON:102:1,2010-12-05T12:00:00Z,29.1870,-90.6093,-9999.0,18.4,1111122 
LUMCON,ioos:station:LUMCON:102:1,2010-12-05T13:00:00Z,29.1870,-90.6093,-9999.0,17.02,1111122 
LUMCON,ioos:station:LUMCON:102:1,2010-12-05T14:00:00Z,29.1870,-90.6093,-9999.0,17.41,1111122 
LUMCON,ioos:station:LUMCON:102:1,2010-12-05T15:00:00Z,29.1870,-90.6093,-9999.0,16.72,1111122 
LUMCON,ioos:station:LUMCON:102:1,2010-12-05T16:00:00Z,29.1870,-90.6093,-9999.0,16.3,1111122 
LUMCON,ioos:station:LUMCON:102:1,2010-12-05T17:00:00Z,29.1870,-90.6093,-9999.0,16.38,1111122 
LUMCON,ioos:station:LUMCON:102:1,2010-12-05T18:00:00Z,29.1870,-90.6093,-9999.0,16.58,1111122 
LUMCON,ioos:station:LUMCON:102:1,2010-12-05T19:00:00Z,29.1870,-90.6093,-9999.0,16.75,1111122 
LUMCON,ioos:station:LUMCON:102:1,2010-12-05T20:00:00Z,29.1870,-90.6093,-9999.0,17.2,1111122 
LUMCON,ioos:station:LUMCON:102:1,2010-12-05T21:00:00Z,29.1870,-90.6093,-9999.0,17.39,1111122 
LUMCON,ioos:station:LUMCON:102:1,2010-12-05T22:00:00Z,29.1870,-90.6093,-9999.0,18.92,1111122 
LUMCON,ioos:station:LUMCON:102:1,2010-12-05T23:00:00Z,29.1870,-90.6093,-9999.0,20.39,1111122 
LUMCON,ioos:station:LUMCON:102:1,2010-12-05T24:00:00Z,29.1870,-90.6093,-9999.0,21.0,1111122 
LUMCON,ioos:station:LUMCON:102:1,2010-12-06T01:00:00Z,29.1870,-90.6093,-9999.0,21.49,1111122 
LUMCON,ioos:station:LUMCON:102:1,2010-12-06T02:00:00Z,29.1870,-90.6093,-9999.0,21.68,1111122 
LUMCON,ioos:station:LUMCON:102:1,2010-12-06T03:00:00Z,29.1870,-90.6093,-9999.0,21.94,1111122 
LUMCON,ioos:station:LUMCON:102:1,2010-12-06T04:00:00Z,29.1870,-90.6093,-9999.0,22.04,1111122 
LUMCON,ioos:station:LUMCON:102:1,2010-12-06T05:00:00Z,29.1870,-90.6093,-9999.0,22.5,1111122 
LUMCON,ioos:station:LUMCON:102:1,2010-12-06T06:00:00Z,29.1870,-90.6093,-9999.0,22.72,1111122 
LUMCON,ioos:station:LUMCON:102:1,2010-12-06T07:00:00Z,29.1870,-90.6093,-9999.0,21.66,1111122 
LUMCON,ioos:station:LUMCON:102:1,2010-12-06T08:00:00Z,29.1870,-90.6093,-9999.0,20.81,1111122 
LUMCON,ioos:station:LUMCON:102:1,2010-12-06T09:00:00Z,29.1870,-90.6093,-9999.0,20.05,1111122 
LUMCON,ioos:station:LUMCON:102:1,2010-12-06T10:00:00Z,29.1870,-90.6093,-9999.0,17.71,1111122 
LUMCON,ioos:station:LUMCON:102:1,2010-12-06T11:00:00Z,29.1870,-90.6093,-9999.0,16.32,1111122 
LUMCON,ioos:station:LUMCON:102:1,2010-12-06T12:00:00Z,29.1870,-90.6093,-9999.0,16.21,1111122 
LUMCON,ioos:station:LUMCON:102:1,2010-12-06T13:00:00Z,29.1870,-90.6093,-9999.0,15.49,1111122 
LUMCON,ioos:station:LUMCON:102:1,2010-12-06T14:00:00Z,29.1870,-90.6093,-9999.0,15.35,1111122 
LUMCON,ioos:station:LUMCON:102:1,2010-12-06T15:00:00Z,29.1870,-90.6093,-9999.0,14.91,1111122 
LUMCON,ioos:station:LUMCON:102:1,2010-12-06T16:00:00Z,29.1870,-90.6093,-9999.0,14.23,1111122 
LUMCON,ioos:station:LUMCON:102:1,2010-12-06T17:00:00Z,29.1870,-90.6093,-9999.0,14.78,1111122 
LUMCON,ioos:station:LUMCON:102:1,2010-12-06T18:00:00Z,29.1870,-90.6093,-9999.0,14.86,1111122 
LUMCON,ioos:station:LUMCON:102:1,2010-12-06T19:00:00Z,29.1870,-90.6093,-9999.0,15.1,1111122 
LUMCON,ioos:station:LUMCON:102:1,2010-12-06T20:00:00Z,29.1870,-90.6093,-9999.0,15.39,1111122 
LUMCON,ioos:station:LUMCON:102:1,2010-12-06T21:00:00Z,29.1870,-90.6093,-9999.0,15.78,1111122 
LUMCON,ioos:station:LUMCON:102:1,2010-12-06T22:00:00Z,29.1870,-90.6093,-9999.0,16.24,1111122 
LUMCON,ioos:station:LUMCON:102:1,2010-12-06T23:00:00Z,29.1870,-90.6093,-9999.0,17.34,1111122 
LUMCON,ioos:station:LUMCON:102:1,2010-12-06T24:00:00Z,29.1870,-90.6093,-9999.0,18.36,1111122 
LUMCON,ioos:station:LUMCON:102:1,2010-12-07T01:00:00Z,29.1870,-90.6093,-9999.0,18.81,1111122 
LUMCON,ioos:station:LUMCON:102:1,2010-12-07T02:00:00Z,29.1870,-90.6093,-9999.0,19.29,1111122 
LUMCON,ioos:station:LUMCON:102:1,2010-12-07T03:00:00Z,29.1870,-90.6093,-9999.0,19.9,1111122 
LUMCON,ioos:station:LUMCON:102:1,2010-12-07T04:00:00Z,29.1870,-90.6093,-9999.0,20.41,1111122 
LUMCON,ioos:station:LUMCON:102:1,2010-12-07T05:00:00Z,29.1870,-90.6093,-9999.0,20.82,1111122 
LUMCON,ioos:station:LUMCON:102:1,2010-12-07T06:00:00Z,29.1870,-90.6093,-9999.0,20.86,1111122 
LUMCON,ioos:station:LUMCON:102:1,2010-12-07T07:00:00Z,29.1870,-90.6093,-9999.0,20.09,1111122 
LUMCON,ioos:station:LUMCON:102:1,2010-12-07T08:00:00Z,29.1870,-90.6093,-9999.0,19.94,1111122 
LUMCON,ioos:station:LUMCON:102:1,2010-12-07T09:00:00Z,29.1870,-90.6093,-9999.0,19.72,1111122 
LUMCON,ioos:station:LUMCON:102:1,2010-12-07T10:00:00Z,29.1870,-90.6093,-9999.0,18.33,1111122 
LUMCON,ioos:station:LUMCON:102:1,2010-12-07T11:00:00Z,29.1870,-90.6093,-9999.0,18.04,1111122 
LUMCON,ioos:station:LUMCON:102:1,2010-12-07T12:00:00Z,29.1870,-90.6093,-9999.0,17.67,1111122 
LUMCON,ioos:station:LUMCON:102:1,2010-12-07T13:00:00Z,29.1870,-90.6093,-9999.0,15.91,1111122 
LUMCON,ioos:station:LUMCON:102:1,2010-12-07T14:00:00Z,29.1870,-90.6093,-9999.0,14.83,1111122 
LUMCON,ioos:station:LUMCON:102:1,2010-12-07T15:00:00Z,29.1870,-90.6093,-9999.0,14.32,1111122 
LUMCON,ioos:station:LUMCON:102:1,2010-12-07T16:00:00Z,29.1870,-90.6093,-9999.0,14.35,1111122 
LUMCON,ioos:station:LUMCON:102:1,2010-12-07T17:00:00Z,29.1870,-90.6093,-9999.0,14.26,1111122 
LUMCON,ioos:station:LUMCON:102:1,2010-12-07T18:00:00Z,29.1870,-90.6093,-9999.0,14.43,1111122 
LUMCON,ioos:station:LUMCON:102:1,2010-12-07T19:00:00Z,29.1870,-90.6093,-9999.0,14.24,1111122 
LUMCON,ioos:station:LUMCON:102:1,2010-12-07T20:00:00Z,29.1870,-90.6093,-9999.0,14.98,1111122 
LUMCON,ioos:station:LUMCON:102:1,2010-12-07T21:00:00Z,29.1870,-90.6093,-9999.0,15.08,1111122 
LUMCON,ioos:station:LUMCON:102:1,2010-12-07T22:00:00Z,29.1870,-90.6093,-9999.0,15.98,1111122 
LUMCON,ioos:station:LUMCON:102:1,2010-12-07T23:00:00Z,29.1870,-90.6093,-9999.0,16.73,1111122 
LUMCON,ioos:station:LUMCON:102:1,2010-12-07T24:00:00Z,29.1870,-90.6093,-9999.0,18.39,1111122 
LUMCON,ioos:station:LUMCON:102:1,2010-12-08T01:00:00Z,29.1870,-90.6093,-9999.0,19.63,1111122 
LUMCON,ioos:station:LUMCON:102:1,2010-12-08T02:00:00Z,29.1870,-90.6093,-9999.0,20.37,1111122 
LUMCON,ioos:station:LUMCON:102:1,2010-12-08T03:00:00Z,29.1870,-90.6093,-9999.0,21.24,1111122 
LUMCON,ioos:station:LUMCON:102:1,2010-12-08T04:00:00Z,29.1870,-90.6093,-9999.0,21.96,1111122 
LUMCON,ioos:station:LUMCON:102:1,2010-12-08T05:00:00Z,29.1870,-90.6093,-9999.0,22.42,1111122 
LUMCON,ioos:station:LUMCON:102:1,2010-12-08T06:00:00Z,29.1870,-90.6093,-9999.0,22.76,1111122 
LUMCON,ioos:station:LUMCON:102:1,2010-12-08T07:00:00Z,29.1870,-90.6093,-9999.0,22.38,1111122 
LUMCON,ioos:station:LUMCON:102:1,2010-12-08T08:00:00Z,29.1870,-90.6093,-9999.0,22.21,1111122 
LUMCON,ioos:station:LUMCON:102:1,2010-12-08T09:00:00Z,29.1870,-90.6093,-9999.0,22.1,1111122 
LUMCON,ioos:station:LUMCON:102:1,2010-12-08T10:00:00Z,29.1870,-90.6093,-9999.0,21.85,1111122 
LUMCON,ioos:station:LUMCON:102:1,2010-12-08T11:00:00Z,29.1870,-90.6093,-9999.0,19.93,1111122 
LUMCON,ioos:station:LUMCON:102:1,2010-12-08T12:00:00Z,29.1870,-90.6093,-9999.0,18.43,1111122 
LUMCON,ioos:station:LUMCON:102:1,2010-12-08T13:00:00Z,29.1870,-90.6093,-9999.0,17.43,1111122 
LUMCON,ioos:station:LUMCON:102:1,2010-12-08T14:00:00Z,29.1870,-90.6093,-9999.0,16.29,1111122 
LUMCON,ioos:station:LUMCON:102:1,2010-12-08T15:00:00Z,29.1870,-90.6093,-9999.0,15.33,1111122 
LUMCON,ioos:station:LUMCON:102:1,2010-12-08T16:00:00Z,29.1870,-90.6093,-9999.0,14.27,1111122 
LUMCON,ioos:station:LUMCON:102:1,2010-12-08T17:00:00Z,29.1870,-90.6093,-9999.0,14.51,1111122 
LUMCON,ioos:station:LUMCON:102:1,2010-12-08T18:00:00Z,29.1870,-90.6093,-9999.0,16.15,1111122 
LUMCON,ioos:station:LUMCON:102:1,2010-12-08T19:00:00Z,29.1870,-90.6093,-9999.0,14.92,1111122 
LUMCON,ioos:station:LUMCON:102:1,2010-12-08T20:00:00Z,29.1870,-90.6093,-9999.0,15.21,1111122 
LUMCON,ioos:station:LUMCON:102:1,2010-12-08T21:00:00Z,29.1870,-90.6093,-9999.0,15.72,1111122 
LUMCON,ioos:station:LUMCON:102:1,2010-12-08T22:00:00Z,29.1870,-90.6093,-9999.0,16.37,1111122 
LUMCON,ioos:station:LUMCON:102:1,2010-12-08T23:00:00Z,29.1870,-90.6093,-9999.0,16.93,1111122 
LUMCON,ioos:station:LUMCON:102:1,2010-12-08T24:00:00Z,29.1870,-90.6093,-9999.0,16.07,1111122 
LUMCON,ioos:station:LUMCON:102:1,2010-12-09T01:00:00Z,29.1870,-90.6093,-9999.0,15.39,1111122 
LUMCON,ioos:station:LUMCON:102:1,2010-12-09T02:00:00Z,29.1870,-90.6093,-9999.0,16.35,1111122 
LUMCON,ioos:station:LUMCON:102:1,2010-12-09T03:00:00Z,29.1870,-90.6093,-9999.0,17.53,1111122 
LUMCON,ioos:station:LUMCON:102:1,2010-12-09T04:00:00Z,29.1870,-90.6093,-9999.0,18.71,1111122 
LUMCON,ioos:station:LUMCON:102:1,2010-12-09T05:00:00Z,29.1870,-90.6093,-9999.0,19.05,1111122 
LUMCON,ioos:station:LUMCON:102:1,2010-12-09T06:00:00Z,29.1870,-90.6093,-9999.0,19.55,1111122 
LUMCON,ioos:station:LUMCON:102:1,2010-12-09T07:00:00Z,29.1870,-90.6093,-9999.0,19.74,1111122 
LUMCON,ioos:station:LUMCON:102:1,2010-12-09T08:00:00Z,29.1870,-90.6093,-9999.0,19.79,1111122 
LUMCON,ioos:station:LUMCON:102:1,2010-12-09T09:00:00Z,29.1870,-90.6093,-9999.0,19.82,1111122 
LUMCON,ioos:station:LUMCON:102:1,2010-12-09T10:00:00Z,29.1870,-90.6093,-9999.0,19.04,1111122 
LUMCON,ioos:station:LUMCON:102:1,2010-12-09T11:00:00Z,29.1870,-90.6093,-9999.0,20.04,1111122 
LUMCON,ioos:station:LUMCON:102:1,2010-12-09T12:00:00Z,29.1870,-90.6093,-9999.0,22.23,1111122 
LUMCON,ioos:station:LUMCON:102:1,2010-12-09T13:00:00Z,29.1870,-90.6093,-9999.0,19.51,1111122 
LUMCON,ioos:station:LUMCON:102:1,2010-12-09T14:00:00Z,29.1870,-90.6093,-9999.0,18.13,1111122 
LUMCON,ioos:station:LUMCON:102:1,2010-12-09T15:00:00Z,29.1870,-90.6093,-9999.0,17.33,1111122 
LUMCON,ioos:station:LUMCON:102:1,2010-12-09T16:00:00Z,29.1870,-90.6093,-9999.0,17.01,1111122 
LUMCON,ioos:station:LUMCON:102:1,2010-12-09T17:00:00Z,29.1870,-90.6093,-9999.0,16.91,1111122 
LUMCON,ioos:station:LUMCON:102:1,2010-12-09T18:00:00Z,29.1870,-90.6093,-9999.0,16.91,1111122 
LUMCON,ioos:station:LUMCON:102:1,2010-12-09T19:00:00Z,29.1870,-90.6093,-9999.0,16.8,1111122 
LUMCON,ioos:station:LUMCON:102:1,2010-12-09T20:00:00Z,29.1870,-90.6093,-9999.0,16.89,1111122 
LUMCON,ioos:station:LUMCON:102:1,2010-12-09T21:00:00Z,29.1870,-90.6093,-9999.0,17.29,1111122 
LUMCON,ioos:station:LUMCON:102:1,2010-12-09T22:00:00Z,29.1870,-90.6093,-9999.0,17.03,1111122 
LUMCON,ioos:station:LUMCON:102:1,2010-12-09T23:00:00Z,29.1870,-90.6093,-9999.0,17.34,1111122 
LUMCON,ioos:station:LUMCON:102:1,2010-12-09T24:00:00Z,29.1870,-90.6093,-9999.0,17.81,1111122 
LUMCON,ioos:station:LUMCON:102:1,2010-12-10T01:00:00Z,29.1870,-90.6093,-9999.0,19.12,1111122 
LUMCON,ioos:station:LUMCON:102:1,2010-12-10T02:00:00Z,29.1870,-90.6093,-9999.0,20.32,1111122 
LUMCON,ioos:station:LUMCON:102:1,2010-12-10T03:00:00Z,29.1870,-90.6093,-9999.0,21.1,1111122 
LUMCON,ioos:station:LUMCON:102:1,2010-12-10T04:00:00Z,29.1870,-90.6093,-9999.0,21.92,1111122 
LUMCON,ioos:station:LUMCON:102:1,2010-12-10T05:00:00Z,29.1870,-90.6093,-9999.0,22.37,1111122 
LUMCON,ioos:station:LUMCON:102:1,2010-12-10T06:00:00Z,29.1870,-90.6093,-9999.0,22.85,1111122 
LUMCON,ioos:station:LUMCON:102:1,2010-12-10T07:00:00Z,29.1870,-90.6093,-9999.0,22.25,1111122 
LUMCON,ioos:station:LUMCON:102:1,2010-12-10T08:00:00Z,29.1870,-90.6093,-9999.0,22.5,1111122 
LUMCON,ioos:station:LUMCON:102:1,2010-12-10T09:00:00Z,29.1870,-90.6093,-9999.0,23.18,1111122 
LUMCON,ioos:station:LUMCON:102:1,2010-12-10T10:00:00Z,29.1870,-90.6093,-9999.0,23.69,1111122 
LUMCON,ioos:station:LUMCON:102:1,2010-12-10T11:00:00Z,29.1870,-90.6093,-9999.0,23.07,1111122 
LUMCON,ioos:station:LUMCON:102:1,2010-12-10T12:00:00Z,29.1870,-90.6093,-9999.0,20.77,1111122 
LUMCON,ioos:station:LUMCON:102:1,2010-12-10T13:00:00Z,29.1870,-90.6093,-9999.0,19.43,1111122 
LUMCON,ioos:station:LUMCON:102:1,2010-12-10T14:00:00Z,29.1870,-90.6093,-9999.0,18.81,1111122 
LUMCON,ioos:station:LUMCON:102:1,2010-12-10T15:00:00Z,29.1870,-90.6093,-9999.0,18.99,1111122 
LUMCON,ioos:station:LUMCON:102:1,2010-12-10T16:00:00Z,29.1870,-90.6093,-9999.0,18.98,1111122 
LUMCON,ioos:station:LUMCON:102:1,2010-12-10T17:00:00Z,29.1870,-90.6093,-9999.0,19.27,1111122 
LUMCON,ioos:station:LUMCON:102:1,2010-12-10T18:00:00Z,29.1870,-90.6093,-9999.0,17.78,1111122 
LUMCON,ioos:station:LUMCON:102:1,2010-12-10T19:00:00Z,29.1870,-90.6093,-9999.0,23.84,1111122 
LUMCON,ioos:station:LUMCON:102:1,2010-12-10T20:00:00Z,29.1870,-90.6093,-9999.0,24.08,1111122 
LUMCON,ioos:station:LUMCON:102:1,2010-12-10T21:00:00Z,29.1870,-90.6093,-9999.0,24.47,1111122 
LUMCON,ioos:station:LUMCON:102:1,2010-12-10T22:00:00Z,29.1870,-90.6093,-9999.0,24.42,1111122 
LUMCON,ioos:station:LUMCON:102:1,2010-12-10T23:00:00Z,29.1870,-90.6093,-9999.0,24.56,1111122 
LUMCON,ioos:station:LUMCON:102:1,2010-12-10T24:00:00Z,29.1870,-90.6093,-9999.0,24.86,1111122 
LUMCON,ioos:station:LUMCON:102:1,2010-12-11T01:00:00Z,29.1870,-90.6093,-9999.0,25.46,1111122 
LUMCON,ioos:station:LUMCON:102:1,2010-12-11T02:00:00Z,29.1870,-90.6093,-9999.0,26.84,1111122 
LUMCON,ioos:station:LUMCON:102:1,2010-12-11T03:00:00Z,29.1870,-90.6093,-9999.0,28.12,1111122 
LUMCON,ioos:station:LUMCON:102:1,2010-12-11T04:00:00Z,29.1870,-90.6093,-9999.0,28.47,1111122 
LUMCON,ioos:station:LUMCON:102:1,2010-12-11T05:00:00Z,29.1870,-90.6093,-9999.0,28.84,1111122 
LUMCON,ioos:station:LUMCON:102:1,2010-12-11T06:00:00Z,29.1870,-90.6093,-9999.0,29.13,1111122 
LUMCON,ioos:station:LUMCON:102:1,2010-12-11T07:00:00Z,29.1870,-90.6093,-9999.0,29.29,1111122 
LUMCON,ioos:station:LUMCON:102:1,2010-12-11T08:00:00Z,29.1870,-90.6093,-9999.0,29.2,1111122 
LUMCON,ioos:station:LUMCON:102:1,2010-12-11T09:00:00Z,29.1870,-90.6093,-9999.0,29.24,1111122 
LUMCON,ioos:station:LUMCON:102:1,2010-12-11T10:00:00Z,29.1870,-90.6093,-9999.0,29.25,1111122 
LUMCON,ioos:station:LUMCON:102:1,2010-12-11T11:00:00Z,29.1870,-90.6093,-9999.0,28.89,1111122 
LUMCON,ioos:station:LUMCON:102:1,2010-12-11T12:00:00Z,29.1870,-90.6093,-9999.0,28.61,1111122 
LUMCON,ioos:station:LUMCON:102:1,2010-12-11T13:00:00Z,29.1870,-90.6093,-9999.0,28.37,1111122 
LUMCON,ioos:station:LUMCON:102:1,2010-12-11T14:00:00Z,29.1870,-90.6093,-9999.0,26.49,1111122 